| time (UTC) | temp F | wind direction | speed MPH | gust MPH | rain 1hr in | rain 24hr in | rain mn in | humidity % | barometer mb |
| 20260510001241 | 65 | 86 | 0.0 | 0.0 | 0.00 | 0.00 | 0.00 | 58 | 1009.2 |
| 20260509231238 | 71 | 116 | 1.0 | 2.0 | 0.00 | 0.00 | 0.00 | 44 | 1008.6 |
| 20260509221236 | 73 | 247 | 2.0 | 3.0 | 0.00 | 0.00 | 0.00 | 40 | 1008.6 |
| 20260509211236 | 73 | 279 | 2.0 | 3.0 | 0.00 | 0.00 | 0.00 | 40 | 1008.3 |
| 20260509201235 | 73 | 168 | 1.0 | 1.0 | 0.00 | 0.00 | 0.00 | 40 | 1007.9 |
| 20260509191236 | 75 | 174 | 1.0 | 2.0 | 0.00 | 0.00 | 0.00 | 39 | 1008.8 |
| 20260509181231 | 72 | 72 | 2.0 | 3.0 | 0.00 | 0.00 | 0.00 | 45 | 1009.1 |
| 20260509171226 | 69 | 276 | 2.0 | 3.0 | 0.00 | 0.00 | 0.00 | 44 | 1010.2 |
| 20260509161226 | 69 | 138 | 2.0 | 4.0 | 0.00 | 0.00 | 0.00 | 47 | 1010.3 |
| 20260509151224 | 66 | 13 | 1.0 | 2.0 | 0.00 | 0.00 | 0.00 | 52 | 1010.2 |
| 20260509141219 | 64 | 87 | 2.0 | 3.0 | 0.00 | 0.00 | 0.00 | 56 | 1010.5 |
| 20260509131215 | 60 | 231 | 1.0 | 2.0 | 0.00 | 0.00 | 0.00 | 57 | 1011.3 |
| 20260509121211 | 58 | 116 | 1.0 | 1.0 | 0.00 | 0.00 | 0.00 | 56 | 1011.5 |
| 20260509111209 | 53 | 88 | 0.0 | 0.0 | 0.00 | 0.00 | 0.00 | 65 | 1011.5 |
| 20260509101209 | 53 | 104 | 0.0 | 0.0 | 0.00 | 0.00 | 0.00 | 67 | 1011.4 |
| 20260509091205 | 56 | 108 | 0.0 | 0.0 | 0.00 | 0.00 | 0.00 | 50 | 1011.6 |
| 20260509081205 | 57 | 135 | 1.0 | 1.0 | 0.00 | 0.00 | 0.00 | 48 | 1011.8 |
| 20260509071200 | 54 | 103 | 0.0 | 0.0 | 0.00 | 0.00 | 0.00 | 57 | 1012.0 |
| 20260509061158 | 57 | 85 | 0.0 | 0.0 | 0.00 | 0.00 | 0.00 | 47 | 1012.6 |
| 20260509051156 | 57 | 271 | 2.0 | 2.0 | 0.00 | 0.00 | 0.00 | 46 | 1012.8 |
| 20260509041153 | 57 | 164 | 0.0 | 1.0 | 0.00 | 0.00 | 0.00 | 50 | 1012.5 |
| 20260509031148 | 57 | 122 | 0.0 | 1.0 | 0.00 | 0.00 | 0.00 | 51 | 1012.7 |
| 20260509021143 | 55 | 102 | 1.0 | 1.0 | 0.00 | 0.00 | 0.00 | 55 | 1013.1 |
| 20260509011143 | 56 | 84 | 0.0 | 0.0 | 0.00 | 0.00 | 0.00 | 57 | 1012.8 |